Regional Weather Roundup
Issued by NWS

Home | Current Version | Previous Version | Text Only | Print | Product List | Glossary On
Versions: 1 2 3 4 5 6 7 8 9 10 11 12 13 14 15 16 17 18 19 20 21 22 23 24 25 26 27 28 29 30 31 32 33 34 35 36 37 38 39 40 41 42 43 44 45 46 47 48 49 50
000
ASCA44 KEWX 231320
RWRMX

LATIN AMERICA AND CARIBBEAN REGIONAL WEATHER ROUNDUP
NATIONAL WEATHER SERVICE AUSTIN/SAN ANTONIO TX
800 AM CDT FRI JUN 23 2017

NOTE: "FAIR" INDICATED FEW OR NO CLOUDS BELOW 12,000 FEET WITH NO
SIGNIFICANT WEATHER AND/OR OBSTRUCTIONS TO VISIBILITY.

BAJA CALIFORNIA

CITY           SKY/WX    TMP DP  RH WIND       PRES   REMARKS
LORETO         MOCLDY    82  66  57 W10       29.78
MEXICALI       CLEAR     75  66  73 SE3       29.73
S.J. DEL CABO  CLEAR     79  61  53 W7        29.84R
TIJUANA          N/A    N/A N/A N/A MISG        N/A

NORTHWESTERN MEXICO

CITY           SKY/WX    TMP DP  RH WIND       PRES   REMARKS
CULIACAN       MOCLDY    79  72  78 CALM      29.85S
DURANGO        CLEAR     63  55  77 S6        30.14
HERMOSILLO     CLOUDY    84  70  61 CALM      29.83S
CD. JUAREZ     MOSUNNY   86  39  19 SW7       29.88R
LOS MOCHIS     CLEAR     79  70  73 S9        29.84
OBREGON        MOCLDY    81  64  57 SE9       29.81

NORTHEASTERN MEXICO

CITY           SKY/WX    TMP DP  RH WIND       PRES   REMARKS
CHIHUAHUA      MOCLDY    72  45  37 SE6       29.99R
MATAMOROS      MOSUNNY   84  77  79 S10       29.75R HX  94
MONCLOVA       SUNNY     86  57  37 CALM      29.78
MONTERREY      SUNNY     79  63  57 E5        29.75R
NUEVO LAREDO   SUNNY     82  70  65 SE15      29.71R
PIEDRAS NEGRAS SUNNY     81  68  65 SE6       29.75R
REYNOSA        MOSUNNY   79  73  83 SE12      29.74R
SALTILLO       SUNNY     79  54  41 S8        30.04R
TORREON        MOSUNNY   79  45  29 CALM      29.90R
CD. VICTORIA   MOSUNNY   79  70  73 S13       29.75R

WESTERN MEXICO

CITY           SKY/WX    TMP DP  RH WIND       PRES   REMARKS
AGUASCALIENTES SUNNY     64  57  77 S6        30.17R
COLIMA         CLOUDY    73  70  88 CALM      29.98
DEL BAJIO      MOSUNNY   68  59  73 W9        30.22R
GUADALAJARA    MOCLDY    68  59  73 W7        30.12R
MAZATLAN       MOCLDY    77  73  88 CALM      29.87R
P. VALLARTA    PTCLDY    79  79 100 NE5       29.84R
URUAPAN        MOCLDY    64  61  88 CALM      30.11S FOG
ZACATECAS      MOSUNNY   63  54  72 S12       30.21R

CENTRAL MEXICO

CITY           SKY/WX    TMP DP  RH WIND       PRES   REMARKS
CUERNAVACA     PTSUNNY   68  61  77 CALM      30.03R
MEXICO CITY    SUNNY     59  41  51 E7        30.24R
MORELIA        MOSUNNY   63  59  88 CALM      30.17R HAZE
POZA RICA      SUNNY     77  77 100 NW5       29.78S
QUERETARO      SUNNY     59  50  72 E2        30.22R
S. LUIS POTOSI MOSUNNY   63  55  77 CALM      30.13S
TAMPICO        MOSUNNY   82  79  89 SE9       29.76R HX  93
TOLUCA           N/A    N/A N/A N/A MISG        N/A

SOUTHERN MEXICO

CITY           SKY/WX    TMP DP  RH WIND       PRES   REMARKS
ACAPULCO       CLOUDY    77  75  94 CALM      29.82R
B. DE HUATULCO CLOUDY   N/A N/A N/A CALM      29.88S
OAXACA         PTSUNNY   64  59  82 CALM      30.14R
P. ESCONDIDO   CLOUDY    77  72  83 N5        29.92R
VERACRUZ       SUNNY     75  73  94 SW5       29.78R
ZIHUATANEJO    MOCLDY    79  77  94 CALM      29.81R

YUCATAN PENINSULA

CITY           SKY/WX    TMP DP  RH WIND       PRES   REMARKS
CAMPECHE       SUNNY     79  77  94 E14       29.83R
CANCUN         MOSUNNY   82  79  89 E16       29.91R HX  93
CHETUMAL       PTSUNNY   82  77  83 SE14      29.86R HX  91
CD. DEL CARMEN MOSUNNY  N/A N/A N/A SE15      29.83R
COZUMEL        MOSUNNY   82  79  89 SE8       29.88S HX  93
MERIDA         MOSUNNY   79  75  89 E9        29.88R
MINATITLAN     SUNNY     77  75  94 CALM      29.78R
TAPACHULA      PTSUNNY   75  73  94 CALM      29.83R
TUX. GUTIERREZ PTSUNNY   70  68  94 NE5       29.92R
VILLAHERMOSA   PTSUNNY   77  77 100 CALM      29.83R

CENTRAL AMERICA

CITY           SKY/WX    TMP DP  RH WIND       PRES   REMARKS
BELIZE CITY    MOSUNNY   82  79  89 SE5       29.84S HX  93
MANAGUA        MOSUNNY   79  75  89 CALM      29.83S

CARIBBEAN

CITY           SKY/WX    TMP DP  RH WIND       PRES   REMARKS
ARUBA          PTSUNNY   84  75  74 E16       29.89R HX  92
CURACAO        MOSUNNY   84  73  70 E13       29.92R HX  91
KINGSTON       MOSUNNY   82  73  74 NE7       29.92S
NASSAU         MOSUNNY   90  64  43 E12       30.07S HX  91
SAN JUAN       MOSUNNY   82  73  74 E5        30.01R
SANTO DOMINGO  MOSUNNY   84  75  74 NE6       29.97S HX  92
ST. CROIX      MOSUNNY   86  72  62 E15       29.99R HX  92
ST. KITTS      MOSUNNY   81  73  78 NE14      29.97S
ST. MAARTEN    LGT RAIN  79  73  83 E13G25    29.97S
ST. THOMAS     MOSUNNY   88  72  58 NE14      29.99R HX  94

$$





USA.gov is the U.S. government's official web portal to all federal, state and local government web resources and services.